Tracking 28799 objects as of 18-Apr-2024
HD Live streaming from Space Station
objects crossing your sky now

NAVSTAR 71 (USA 256)

Track NAVSTAR 71 (USA 256) now!
NAVSTAR 71 (USA 256) is classified as:


NORAD ID: 40105
Int'l Code: 2014-045A
Perigee: 20,124.1 km
Apogee: 20,254.8 km
Inclination: 54.9 °
Period: 718.0 minutes
Semi major axis: 26560 km
RCS: Unknown
Launch date: August 2, 2014
Source: United States (US)
Launch site: AIR FORCE EASTERN TEST RANGE (AFETR)
PRN: 9
Your satellite tracking list
Your tracking list is empty




NASA's NSSDC Master Catalog

Two Line Element Set (TLE):
1 40105U 14045A   24108.30824287  .00000053  00000-0  00000-0 0  9991
2 40105  54.9040 120.0393 0024606 116.8011 243.4915  2.00562078 70216
Source of the keplerian elements: AFSPC